Location: Goettingen
(51.5300°N, 9.9433°E)
Time: 10:21:54
(UTC+02:00)

ISS - Pass Details

Date: 19 May 2018
Orbit: 402 x 407 km, 51.6° (Epoch: 23 May)

Event Time Altitude Azimuth Distance (km) Brightness Sun altitude
Exits shadow 02:30:09 15° 272° (W) 1,199 -1.6 -17.0°
Maximum altitude 02:32:47 86° 0° (N) 409 -3.9 -16.8°
Drops below altitude 10° 02:36:03 10° 90° (E) 1,458 -0.8 -16.7°
Sets 02:38:08 0° 91° (E) 2,318 0.3 -16.6°
